BAW821 EKCH-EGLL

Flight info

Callsign BAW821
Flight time 1h 36m
Altitude 36000
Route LANG2A LANGO RAXLU JUIST ABNED L980 LOGAN LOGA2H
Aircraft A320/M-SDE3FGHIRWY/LB1

Departure

Time 2026-04-26 14:45
Airport Copenhagen Kastrup Airport (EKCH)

Arrival

Time 2026-04-26 16:21
Airport London Heathrow Airport (EGLL)
Time Latitude Longitude Altitude Speed Heading
2026-04-26 14:10 55.62698 12.65083 19 ft 0 kts 289°
2026-04-26 14:33 55.62696 12.65090 19 ft 2 kts 289°
2026-04-26 14:34 55.62691 12.65115 19 ft 2 kts 287°
2026-04-26 14:34 55.62687 12.65140 19 ft 2 kts 287°
2026-04-26 14:34 55.62683 12.65166 19 ft 2 kts 285°
2026-04-26 14:34 55.62679 12.65191 18 ft 2 kts 284°
2026-04-26 14:35 55.62676 12.65217 18 ft 2 kts 283°
2026-04-26 14:35 55.62672 12.65243 18 ft 2 kts 283°
2026-04-26 14:35 55.62669 12.65269 18 ft 2 kts 282°
2026-04-26 14:35 55.62667 12.65282 18 ft 0 kts 282°
2026-04-26 14:37 55.62670 12.65262 18 ft 3 kts 279°
2026-04-26 14:37 55.62655 12.65194 18 ft 8 kts 220°
2026-04-26 14:38 55.62597 12.65178 19 ft 9 kts 178°
2026-04-26 14:38 55.62525 12.65181 19 ft 11 kts 179°
2026-04-26 14:38 55.62444 12.65196 19 ft 12 kts 171°
2026-04-26 14:38 55.62385 12.65199 19 ft 13 kts 180°
2026-04-26 14:39 55.62259 12.65196 19 ft 14 kts 184°
2026-04-26 14:39 55.62168 12.65130 20 ft 14 kts 214°
2026-04-26 14:39 55.62080 12.65027 20 ft 15 kts 214°
2026-04-26 14:39 55.61991 12.64925 20 ft 15 kts 213°
2026-04-26 14:40 55.61898 12.64818 21 ft 16 kts 213°
2026-04-26 14:40 55.61802 12.64707 21 ft 16 kts 212°
2026-04-26 14:40 55.61703 12.64595 22 ft 17 kts 213°
2026-04-26 14:40 55.61601 12.64479 22 ft 18 kts 214°
2026-04-26 14:41 55.61495 12.64354 22 ft 18 kts 213°
2026-04-26 14:41 55.61382 12.64228 22 ft 19 kts 213°
2026-04-26 14:41 55.61269 12.64099 22 ft 19 kts 214°
2026-04-26 14:41 55.61155 12.63968 22 ft 19 kts 213°
2026-04-26 14:42 55.61041 12.63836 22 ft 19 kts 213°
2026-04-26 14:42 55.60925 12.63703 22 ft 20 kts 214°
2026-04-26 14:42 55.60807 12.63569 21 ft 20 kts 213°
2026-04-26 14:42 55.60687 12.63430 21 ft 20 kts 215°
2026-04-26 14:43 55.60588 12.63291 21 ft 12 kts 222°
2026-04-26 14:43 55.60525 12.63202 20 ft 10 kts 195°
2026-04-26 14:43 55.60470 12.63273 20 ft 11 kts 131°
2026-04-26 14:43 55.60416 12.63382 20 ft 12 kts 131°
2026-04-26 14:44 55.60400 12.63447 21 ft 5 kts 58°
2026-04-26 14:44 55.60439 12.63499 21 ft 10 kts 39°
2026-04-26 14:44 55.60648 12.63823 22 ft 75 kts 41°
2026-04-26 14:44 55.61205 12.64679 24 ft 137 kts 42°
2026-04-26 14:45 55.62041 12.66005 235 ft 169 kts 40°
2026-04-26 14:45 55.62610 12.66898 682 ft 166 kts 38°
2026-04-26 14:45 55.63760 12.68667 1564 ft 167 kts 36°
2026-04-26 14:45 55.64639 12.69989 2078 ft 171 kts 36°
2026-04-26 14:46 55.65571 12.71374 2446 ft 182 kts 37°
2026-04-26 14:46 55.66568 12.72892 2796 ft 197 kts 36°
2026-04-26 14:46 55.67669 12.74512 3136 ft 215 kts 37°
2026-04-26 14:46 55.68840 12.76281 3562 ft 232 kts 37°
2026-04-26 14:47 55.70092 12.78226 4065 ft 247 kts 44°
2026-04-26 14:47 55.70938 12.80958 4605 ft 266 kts 75°
2026-04-26 14:47 55.70883 12.84246 5321 ft 278 kts 106°
2026-04-26 14:47 55.69911 12.87157 6111 ft 283 kts 136°
2026-04-26 14:48 55.68257 12.88962 6814 ft 286 kts 163°
2026-04-26 14:48 55.66341 12.89880 7581 ft 288 kts 168°
2026-04-26 14:48 55.64377 12.90719 8230 ft 296 kts 168°
2026-04-26 14:48 55.62345 12.91582 8908 ft 301 kts 170°
2026-04-26 14:49 55.60289 12.91827 9570 ft 300 kts 194°
2026-04-26 14:49 55.58412 12.90509 10205 ft 292 kts 222°
2026-04-26 14:49 55.56990 12.87994 10756 ft 288 kts 242°
2026-04-26 14:49 55.56022 12.84860 11080 ft 300 kts 250°
2026-04-26 14:50 55.55093 12.81491 11466 ft 312 kts 250°
2026-04-26 14:50 55.54118 12.78029 12070 ft 316 kts 249°
2026-04-26 14:50 55.53126 12.74593 12642 ft 320 kts 249°
2026-04-26 14:50 55.52106 12.71108 13258 ft 324 kts 249°
2026-04-26 14:51 55.51063 12.67580 13818 ft 327 kts 249°
2026-04-26 14:51 55.50001 12.64004 14432 ft 331 kts 249°
2026-04-26 14:51 55.48932 12.60419 14974 ft 333 kts 249°
2026-04-26 14:51 55.47854 12.56812 15608 ft 335 kts 249°
2026-04-26 14:52 55.46772 12.53208 16173 ft 337 kts 249°
2026-04-26 14:52 55.45676 12.49560 16726 ft 339 kts 249°
2026-04-26 14:52 55.44570 12.45891 17273 ft 341 kts 249°
2026-04-26 14:52 55.43459 12.42204 17783 ft 343 kts 249°
2026-04-26 14:53 55.42340 12.38501 18287 ft 345 kts 249°
2026-04-26 14:53 55.41219 12.34799 18790 ft 347 kts 248°
2026-04-26 14:53 55.40064 12.30986 19292 ft 350 kts 248°
2026-04-26 14:53 55.38903 12.27155 19787 ft 352 kts 248°
2026-04-26 14:54 55.37740 12.23328 20264 ft 355 kts 248°
2026-04-26 14:54 55.36567 12.19476 20743 ft 357 kts 248°
2026-04-26 14:54 55.35390 12.15618 21167 ft 360 kts 248°
2026-04-26 14:54 55.34202 12.11725 21490 ft 366 kts 247°
2026-04-26 14:55 55.32996 12.07788 21926 ft 368 kts 247°
2026-04-26 14:55 55.31796 12.03876 22371 ft 369 kts 247°
2026-04-26 14:55 55.30567 11.99883 22815 ft 371 kts 247°
2026-04-26 14:55 55.29337 11.95885 23237 ft 373 kts 247°
2026-04-26 14:56 55.28116 11.91925 23658 ft 374 kts 246°
2026-04-26 14:56 55.26888 11.87949 24076 ft 375 kts 246°
2026-04-26 14:56 55.25636 11.83905 24466 ft 377 kts 246°
2026-04-26 14:56 55.24383 11.79862 24852 ft 379 kts 247°
2026-04-26 14:57 55.23123 11.75802 25224 ft 381 kts 246°
2026-04-26 14:57 55.21855 11.71721 25586 ft 383 kts 246°
2026-04-26 14:57 55.20592 11.67666 25954 ft 385 kts 246°
2026-04-26 14:57 55.19305 11.63538 26313 ft 386 kts 247°
2026-04-26 14:58 55.18021 11.59428 26654 ft 388 kts 246°
2026-04-26 14:58 55.16728 11.55296 26983 ft 390 kts 246°
2026-04-26 14:58 55.15418 11.51121 27305 ft 392 kts 246°
2026-04-26 14:58 55.14111 11.46958 27618 ft 394 kts 246°
2026-04-26 14:59 55.12782 11.42729 27933 ft 396 kts 246°
2026-04-26 14:59 55.11454 11.38514 28259 ft 398 kts 246°
2026-04-26 14:59 55.10122 11.34300 28554 ft 399 kts 245°
2026-04-26 14:59 55.09225 11.31466 28743 ft 401 kts 245°
2026-04-26 15:00 55.07389 11.25668 29138 ft 404 kts 245°
2026-04-26 15:00 55.06027 11.21381 29449 ft 405 kts 245°
2026-04-26 15:00 55.04642 11.17029 29753 ft 406 kts 245°
2026-04-26 15:00 55.03258 11.12688 30027 ft 408 kts 245°
2026-04-26 15:01 55.01886 11.08390 30290 ft 409 kts 245°
2026-04-26 15:01 55.00505 11.04069 30530 ft 412 kts 245°
2026-04-26 15:01 54.99112 10.99720 30761 ft 413 kts 245°
2026-04-26 15:01 54.97697 10.95316 31020 ft 414 kts 245°
2026-04-26 15:02 54.96306 10.90995 31331 ft 414 kts 245°
2026-04-26 15:02 54.94871 10.86640 31638 ft 414 kts 243°
2026-04-26 15:02 54.93338 10.82454 31928 ft 415 kts 240°
2026-04-26 15:02 54.91716 10.78304 32211 ft 415 kts 240°
2026-04-26 15:03 54.90111 10.74200 32477 ft 415 kts 240°
2026-04-26 15:03 54.88452 10.69966 32754 ft 415 kts 240°
2026-04-26 15:03 54.86804 10.65766 33018 ft 415 kts 240°
2026-04-26 15:03 54.85175 10.61627 33288 ft 414 kts 240°
2026-04-26 15:04 54.83527 10.57446 33551 ft 414 kts 240°
2026-04-26 15:04 54.82207 10.54105 33745 ft 414 kts 240°
2026-04-26 15:04 54.80576 10.49981 33998 ft 413 kts 240°
2026-04-26 15:04 54.78921 10.45803 34263 ft 412 kts 240°
2026-04-26 15:05 54.77246 10.41580 34510 ft 412 kts 240°
2026-04-26 15:05 54.74204 10.33941 34851 ft 414 kts 240°
2026-04-26 15:05 54.72574 10.29827 34996 ft 414 kts 241°
2026-04-26 15:06 54.71012 10.25522 35162 ft 413 kts 244°
2026-04-26 15:06 54.69579 10.21121 35325 ft 413 kts 245°
2026-04-26 15:06 54.68219 10.16909 35485 ft 414 kts 244°
2026-04-26 15:06 54.66723 10.12551 35633 ft 416 kts 243°
2026-04-26 15:07 54.63745 10.04139 35887 ft 418 kts 243°
2026-04-26 15:07 54.62228 9.99868 36009 ft 419 kts 243°
2026-04-26 15:07 54.60723 9.95628 36124 ft 420 kts 243°
2026-04-26 15:08 54.59188 9.91304 36250 ft 421 kts 243°
2026-04-26 15:08 54.57667 9.87024 36284 ft 421 kts 243°
2026-04-26 15:08 54.54614 9.78448 36291 ft 422 kts 243°
2026-04-26 15:09 54.51539 9.69836 36297 ft 422 kts 243°
2026-04-26 15:09 54.48492 9.61332 36301 ft 421 kts 243°
2026-04-26 15:10 54.45927 9.54195 36305 ft 422 kts 243°
2026-04-26 15:10 54.42321 9.44197 36309 ft 422 kts 243°
2026-04-26 15:11 54.39224 9.35638 36314 ft 422 kts 243°
2026-04-26 15:11 54.36089 9.27006 36318 ft 423 kts 242°
2026-04-26 15:12 54.32964 9.18432 36323 ft 423 kts 242°
2026-04-26 15:12 54.29850 9.09917 36324 ft 423 kts 242°
2026-04-26 15:13 54.26721 9.01395 36323 ft 423 kts 242°
2026-04-26 15:13 54.23604 8.92932 36327 ft 424 kts 242°
2026-04-26 15:14 54.20460 8.84423 36329 ft 423 kts 242°
2026-04-26 15:14 54.17305 8.75913 36332 ft 423 kts 242°
2026-04-26 15:15 54.14185 8.67527 36333 ft 423 kts 242°
2026-04-26 15:15 54.11029 8.59072 36333 ft 424 kts 242°
2026-04-26 15:16 54.07860 8.50612 36333 ft 424 kts 242°
2026-04-26 15:16 54.04691 8.42183 36336 ft 424 kts 242°
2026-04-26 15:17 54.02059 8.35201 36336 ft 424 kts 242°
2026-04-26 15:17 53.98299 8.25262 36340 ft 424 kts 241°
2026-04-26 15:18 53.95113 8.16873 36344 ft 424 kts 241°
2026-04-26 15:18 53.91943 8.08550 36341 ft 424 kts 241°
2026-04-26 15:19 53.88731 8.00144 36338 ft 424 kts 241°
2026-04-26 15:19 53.85447 7.91584 36338 ft 425 kts 241°
2026-04-26 15:20 53.82211 7.83174 36342 ft 425 kts 241°
2026-04-26 15:20 53.78909 7.74621 36340 ft 425 kts 241°
2026-04-26 15:21 53.75715 7.66380 36337 ft 426 kts 241°
2026-04-26 15:21 53.72461 7.58011 36337 ft 426 kts 241°
2026-04-26 15:22 53.69204 7.49660 36330 ft 426 kts 241°
2026-04-26 15:22 53.65952 7.41350 36334 ft 425 kts 241°
2026-04-26 15:23 53.62704 7.33073 36335 ft 425 kts 240°
2026-04-26 15:23 53.59465 7.24854 36330 ft 426 kts 240°
2026-04-26 15:24 53.56175 7.16533 36337 ft 426 kts 240°
2026-04-26 15:24 53.52881 7.08223 36335 ft 427 kts 240°
2026-04-26 15:25 53.50158 7.01374 36335 ft 427 kts 240°
2026-04-26 15:25 53.46305 6.91721 36341 ft 427 kts 240°
2026-04-26 15:26 53.42999 6.83464 36342 ft 427 kts 240°
2026-04-26 15:26 53.39693 6.75239 36338 ft 427 kts 240°
2026-04-26 15:27 53.36377 6.67012 36336 ft 427 kts 240°
2026-04-26 15:27 53.33070 6.58834 36337 ft 427 kts 240°
2026-04-26 15:28 53.29731 6.50602 36336 ft 427 kts 240°
2026-04-26 15:28 53.26392 6.42399 36341 ft 427 kts 240°
2026-04-26 15:29 53.23060 6.34240 36346 ft 427 kts 239°
2026-04-26 15:30 53.16299 6.17765 36343 ft 428 kts 240°
2026-04-26 15:30 53.12938 6.09615 36336 ft 428 kts 240°
2026-04-26 15:31 53.07879 5.97391 36335 ft 428 kts 240°
2026-04-26 15:32 53.03928 5.87892 36333 ft 429 kts 240°
2026-04-26 15:32 52.99395 5.77033 36332 ft 429 kts 240°
2026-04-26 15:33 52.96012 5.68961 36335 ft 429 kts 240°
2026-04-26 15:33 52.92607 5.60859 36332 ft 428 kts 240°
2026-04-26 15:34 52.89199 5.52776 36332 ft 428 kts 240°
2026-04-26 15:34 52.85753 5.44631 36335 ft 427 kts 240°
2026-04-26 15:35 52.82281 5.36452 36335 ft 427 kts 240°
2026-04-26 15:35 52.79297 5.29444 36337 ft 428 kts 239°
2026-04-26 15:36 52.75840 5.21346 36337 ft 428 kts 239°
2026-04-26 15:36 52.72389 5.13287 36334 ft 427 kts 239°
2026-04-26 15:37 52.69288 5.06070 36337 ft 428 kts 239°
2026-04-26 15:37 52.66149 4.98779 36338 ft 429 kts 239°
2026-04-26 15:38 52.62684 4.90767 36334 ft 428 kts 239°
2026-04-26 15:38 52.59340 4.83051 36333 ft 428 kts 239°
2026-04-26 15:39 52.55877 4.75086 36336 ft 427 kts 239°
2026-04-26 15:39 52.53572 4.69798 36328 ft 427 kts 239°
2026-04-26 15:40 52.48962 4.59255 36326 ft 427 kts 239°
2026-04-26 15:40 52.45515 4.51402 36329 ft 427 kts 239°
2026-04-26 15:41 52.42043 4.43514 36321 ft 427 kts 239°
2026-04-26 15:41 52.38595 4.35707 36325 ft 426 kts 239°
2026-04-26 15:42 52.35169 4.27968 36322 ft 426 kts 238°
2026-04-26 15:42 52.31685 4.20128 36324 ft 426 kts 238°
2026-04-26 15:43 52.28207 4.12322 36325 ft 427 kts 238°
2026-04-26 15:44 52.22985 4.00651 36324 ft 427 kts 238°
2026-04-26 15:44 52.17738 3.88973 36321 ft 426 kts 238°
2026-04-26 15:45 52.12487 3.77343 36321 ft 425 kts 238°
2026-04-26 15:46 52.07242 3.65774 36315 ft 426 kts 238°
2026-04-26 15:46 52.04892 3.60611 36320 ft 426 kts 238°
2026-04-26 15:47 51.98442 3.46488 36325 ft 426 kts 238°
2026-04-26 15:48 51.94930 3.38833 36322 ft 426 kts 238°
2026-04-26 15:48 51.91378 3.31116 36329 ft 425 kts 237°
2026-04-26 15:49 51.88092 3.23122 36332 ft 422 kts 245°
2026-04-26 15:49 51.85725 3.14617 36321 ft 417 kts 254°
2026-04-26 15:50 51.84240 3.05441 36324 ft 414 kts 263°
2026-04-26 15:50 51.83565 2.96452 36320 ft 413 kts 266°
2026-04-26 15:51 51.82973 2.87285 36325 ft 414 kts 266°
2026-04-26 15:51 51.82665 2.82584 36212 ft 414 kts 266°
2026-04-26 15:51 51.82413 2.78759 36024 ft 412 kts 266°
2026-04-26 15:51 51.82107 2.74174 35768 ft 410 kts 266°
2026-04-26 15:52 51.81800 2.69622 35410 ft 407 kts 266°
2026-04-26 15:52 51.81496 2.65113 34942 ft 405 kts 266°
2026-04-26 15:52 51.81187 2.60587 34320 ft 403 kts 266°
2026-04-26 15:52 51.80982 2.57608 33921 ft 402 kts 266°
2026-04-26 15:53 51.80572 2.51693 33123 ft 403 kts 266°
2026-04-26 15:53 51.80255 2.47171 32467 ft 404 kts 265°
2026-04-26 15:53 51.79941 2.42698 31789 ft 404 kts 265°
2026-04-26 15:53 51.79623 2.38217 31094 ft 404 kts 265°
2026-04-26 15:54 51.79308 2.33814 30480 ft 403 kts 265°
2026-04-26 15:54 51.78981 2.29283 30050 ft 403 kts 265°
2026-04-26 15:54 51.78657 2.24784 29584 ft 401 kts 265°
2026-04-26 15:54 51.78342 2.20242 29079 ft 398 kts 265°
2026-04-26 15:55 51.78090 2.15944 28606 ft 394 kts 266°
2026-04-26 15:55 51.77842 2.11558 28058 ft 392 kts 266°
2026-04-26 15:55 51.77586 2.07094 27506 ft 389 kts 266°
2026-04-26 15:55 51.77333 2.02764 26994 ft 386 kts 266°
2026-04-26 15:56 51.77117 1.99130 26763 ft 377 kts 266°
2026-04-26 15:56 51.76866 1.94915 26618 ft 383 kts 265°
2026-04-26 15:56 51.76611 1.90677 26456 ft 387 kts 265°
2026-04-26 15:56 51.76345 1.86310 26278 ft 388 kts 265°
2026-04-26 15:57 51.76082 1.82023 26110 ft 387 kts 265°
2026-04-26 15:57 51.75818 1.77757 25945 ft 386 kts 265°
2026-04-26 15:57 51.75548 1.73418 25781 ft 385 kts 265°
2026-04-26 15:57 51.75369 1.70556 25673 ft 385 kts 265°
2026-04-26 15:58 51.75011 1.64869 25453 ft 384 kts 265°
2026-04-26 15:58 51.74745 1.60635 25279 ft 383 kts 265°
2026-04-26 15:58 51.74473 1.56324 24721 ft 383 kts 265°
2026-04-26 15:58 51.74208 1.52136 24249 ft 380 kts 265°
2026-04-26 15:59 51.73939 1.47928 23737 ft 377 kts 265°
2026-04-26 15:59 51.73669 1.43738 23239 ft 375 kts 265°
2026-04-26 15:59 51.73401 1.39602 22743 ft 373 kts 265°
2026-04-26 15:59 51.73131 1.35459 22255 ft 370 kts 265°
2026-04-26 16:00 51.72859 1.31319 21767 ft 368 kts 264°
2026-04-26 16:00 51.72588 1.27219 21286 ft 365 kts 264°
2026-04-26 16:00 51.72313 1.23064 20796 ft 363 kts 264°
2026-04-26 16:00 51.72044 1.19043 20323 ft 361 kts 264°
2026-04-26 16:01 51.71792 1.15290 19888 ft 359 kts 264°
2026-04-26 16:01 51.71515 1.11186 19414 ft 357 kts 264°
2026-04-26 16:01 51.71239 1.07123 18951 ft 354 kts 264°
2026-04-26 16:01 51.70985 1.03416 18537 ft 351 kts 263°
2026-04-26 16:02 51.70735 0.99765 18103 ft 349 kts 263°
2026-04-26 16:02 51.70467 0.95870 17657 ft 347 kts 263°
2026-04-26 16:02 51.70199 0.91983 17193 ft 345 kts 263°
2026-04-26 16:02 51.70022 0.89429 16890 ft 344 kts 263°
2026-04-26 16:03 51.69671 0.84394 16293 ft 341 kts 263°
2026-04-26 16:03 51.69403 0.80567 15836 ft 340 kts 263°
2026-04-26 16:03 51.69138 0.76816 15391 ft 338 kts 263°
2026-04-26 16:03 51.68872 0.73080 14953 ft 336 kts 263°
2026-04-26 16:04 51.68608 0.69365 14525 ft 334 kts 264°
2026-04-26 16:04 51.68346 0.65678 14099 ft 332 kts 264°
2026-04-26 16:04 51.68080 0.61968 13675 ft 330 kts 264°
2026-04-26 16:04 51.67818 0.58326 13246 ft 328 kts 264°
2026-04-26 16:05 51.67554 0.54680 12827 ft 326 kts 264°
2026-04-26 16:05 51.67292 0.51091 12413 ft 325 kts 264°
2026-04-26 16:05 51.67028 0.47464 11980 ft 323 kts 264°
2026-04-26 16:05 51.66769 0.43906 11562 ft 322 kts 264°
2026-04-26 16:06 51.66505 0.40312 11141 ft 320 kts 264°
2026-04-26 16:06 51.66246 0.36795 10710 ft 319 kts 264°
2026-04-26 16:06 51.65984 0.33262 10295 ft 317 kts 263°
2026-04-26 16:06 51.65717 0.29690 9864 ft 316 kts 263°
2026-04-26 16:07 51.65446 0.26080 9459 ft 314 kts 263°
2026-04-26 16:07 51.65178 0.22529 9056 ft 312 kts 263°
2026-04-26 16:07 51.64930 0.19242 8659 ft 311 kts 263°
2026-04-26 16:07 51.64664 0.15730 8268 ft 309 kts 263°
2026-04-26 16:08 51.64436 0.12233 7836 ft 308 kts 265°
2026-04-26 16:08 51.64307 0.09861 7566 ft 307 kts 265°
2026-04-26 16:08 51.64078 0.05488 7278 ft 306 kts 265°
2026-04-26 16:08 51.63895 0.02056 7276 ft 308 kts 265°
2026-04-26 16:09 51.63707 -0.01400 7230 ft 309 kts 265°
2026-04-26 16:09 51.63518 -0.04832 7084 ft 307 kts 265°
2026-04-26 16:09 51.63328 -0.08228 7028 ft 307 kts 265°
2026-04-26 16:09 51.63134 -0.11673 7003 ft 307 kts 265°
2026-04-26 16:10 51.62938 -0.15106 6986 ft 307 kts 265°
2026-04-26 16:10 51.62744 -0.18503 6982 ft 307 kts 265°
2026-04-26 16:10 51.62547 -0.21929 6977 ft 308 kts 265°
2026-04-26 16:10 51.62350 -0.25342 6974 ft 306 kts 265°
2026-04-26 16:11 51.62156 -0.28681 6976 ft 291 kts 265°
2026-04-26 16:11 51.61971 -0.31842 6967 ft 278 kts 265°
2026-04-26 16:11 51.61790 -0.34924 6967 ft 275 kts 265°
2026-04-26 16:11 51.61610 -0.37984 6965 ft 275 kts 265°
2026-04-26 16:12 51.61430 -0.41015 6965 ft 275 kts 265°
2026-04-26 16:12 51.61248 -0.44071 6963 ft 275 kts 265°
2026-04-26 16:12 51.60881 -0.50194 6965 ft 274 kts 265°
2026-04-26 16:13 51.60696 -0.53243 6971 ft 273 kts 265°
2026-04-26 16:13 51.60516 -0.56199 6976 ft 260 kts 265°
2026-04-26 16:13 51.60343 -0.59027 6966 ft 246 kts 265°
2026-04-26 16:13 51.60178 -0.61728 6966 ft 243 kts 265°
2026-04-26 16:14 51.60013 -0.64437 6965 ft 243 kts 265°
2026-04-26 16:14 51.59847 -0.67141 6984 ft 240 kts 264°
2026-04-26 16:14 51.59514 -0.72534 6663 ft 229 kts 264°
2026-04-26 16:15 51.59374 -0.74788 6526 ft 226 kts 264°
2026-04-26 16:15 51.59028 -0.77287 6285 ft 224 kts 243°
2026-04-26 16:15 51.58096 -0.79153 6028 ft 223 kts 215°
2026-04-26 16:16 51.54960 -0.79993 4961 ft 243 kts 174°
2026-04-26 16:16 51.53256 -0.79732 4476 ft 243 kts 174°
2026-04-26 16:16 51.51585 -0.79512 4004 ft 241 kts 175°
2026-04-26 16:16 51.49981 -0.78985 3567 ft 235 kts 149°
2026-04-26 16:17 51.48870 -0.77173 3257 ft 221 kts 119°
2026-04-26 16:17 51.48225 -0.75010 3009 ft 211 kts 110°
2026-04-26 16:17 51.47825 -0.72829 2795 ft 200 kts 99°
2026-04-26 16:17 51.47674 -0.70674 2612 ft 189 kts 91°
2026-04-26 16:18 51.47678 -0.68621 2561 ft 184 kts 88°
2026-04-26 16:18 51.47727 -0.64567 2026 ft 176 kts 89°
2026-04-26 16:19 51.47731 -0.60842 1559 ft 157 kts 90°
2026-04-26 16:19 51.47714 -0.59174 1392 ft 146 kts 90°
2026-04-26 16:19 51.47731 -0.56538 1043 ft 138 kts 89°
2026-04-26 16:20 51.47731 -0.54495 818 ft 135 kts 90°
2026-04-26 16:20 51.47748 -0.51474 480 ft 135 kts 89°
2026-04-26 16:20 51.47747 -0.49963 294 ft 134 kts 90°
2026-04-26 16:21 51.47750 -0.48478 126 ft 132 kts 90°
2026-04-26 16:21 51.47754 -0.47122 93 ft 100 kts 89°
2026-04-26 16:21 51.47758 -0.46283 92 ft 50 kts 89°
2026-04-26 16:21 51.47759 -0.45812 92 ft 35 kts 89°
2026-04-26 16:22 51.47759 -0.45544 92 ft 15 kts 95°
2026-04-26 16:22 51.47679 -0.45469 92 ft 12 kts 179°
2026-04-26 16:22 51.47605 -0.45473 92 ft 9 kts 197°
2026-04-26 16:22 51.47593 -0.45574 92 ft 11 kts 274°
2026-04-26 16:23 51.47596 -0.45705 92 ft 12 kts 268°
2026-04-26 16:23 51.47594 -0.45853 92 ft 13 kts 269°
2026-04-26 16:23 51.47594 -0.46013 92 ft 14 kts 269°
2026-04-26 16:23 51.47593 -0.46184 92 ft 15 kts 269°
2026-04-26 16:24 51.47592 -0.46365 92 ft 16 kts 269°
2026-04-26 16:24 51.47591 -0.46556 92 ft 17 kts 269°
2026-04-26 16:24 51.47591 -0.46753 92 ft 18 kts 269°
2026-04-26 16:24 51.47582 -0.46953 92 ft 18 kts 270°
2026-04-26 16:25 51.47582 -0.47161 92 ft 18 kts 269°
2026-04-26 16:25 51.47580 -0.47370 92 ft 19 kts 269°
2026-04-26 16:25 51.47578 -0.47585 92 ft 19 kts 269°
2026-04-26 16:25 51.47579 -0.47802 92 ft 19 kts 269°
2026-04-26 16:26 51.47578 -0.48024 92 ft 19 kts 269°
2026-04-26 16:26 51.47578 -0.48174 92 ft 20 kts 269°
2026-04-26 16:26 51.47577 -0.48416 92 ft 10 kts 269°
2026-04-26 16:26 51.47526 -0.48477 92 ft 11 kts 179°
2026-04-26 16:27 51.47440 -0.48475 92 ft 13 kts 179°
2026-04-26 16:27 51.47346 -0.48474 92 ft 14 kts 179°
2026-04-26 16:27 51.47244 -0.48472 92 ft 15 kts 178°
2026-04-26 16:27 51.47136 -0.48473 92 ft 15 kts 178°
2026-04-26 16:28 51.47060 -0.48472 92 ft 3 kts 182°
2026-04-26 16:28 51.47048 -0.48506 92 ft 4 kts 264°
2026-04-26 16:28 51.47049 -0.48567 92 ft 2 kts 268°
2026-04-26 16:28 51.47049 -0.48582 92 ft 0 kts 269°